Location: Clanezzo
(45.7500°N, 9.6000°E)
Time: 10:42:06
(UTC+00:00)

SPROUT - Pass Details

Date: 02 July 2022
Orbit: 588 x 598 km, 97.9° (Epoch: 14 August)

Event Time Altitude Azimuth Distance (km) Brightness Sun altitude
Exits shadow 00:27:19 49° 222° (SW) 766 ? -19.8°
Maximum altitude 00:27:59 55° 259° (W) 708 ? -19.8°
Drops below altitude 10° 00:32:06 10° 338° (NNW) 1,927 ? -19.6°
Sets 00:34:18 0° 343° (NNW) 2,834 ? -19.5°
